Location: Edemissen
(51.7689°N, 9.8634°E)
Time: 07:49:47
(UTC+00:00)

SL-16 R/B - Pass Details

Date: 15 June 2024
Orbit: 984 x 1007 km, 99.7° (Epoch: 22 July)

Event Time Altitude Azimuth Distance (km) Brightness Sun altitude
Rises 01:30:33 0° 154° (SSE) 3,723 5.2 -9.7°
Reaches altitude 10° 01:33:01 10° 153° (SSE) 2,775 4.6 -9.5°
Maximum altitude 01:39:15 76° 69° (ENE) 1,036 2.8 -9.0°
Drops below altitude 10° 01:45:29 10° 345° (NNW) 2,779 5.5 -8.5°
Sets 01:47:58 0° 345° (NNW) 3,729 6.2 -8.3°
